Weather History for BGBW - May, 2014

Change the Weather History Date:

Sunday, May 4, 2014

  Actual Average Record
Temperature  
Mean Temperature 53 °F -  
Max Temperature 58 °F 50 °F 59 °F (2008)
Min Temperature 47 °F 36 °F 23 °F (2013)
Degree Days  
Heating Degree Days 12    
Growing Degree Days 3 (Base 50)    
Moisture  
Dew Point 22 °F    
Average Humidity 22    
Maximum Humidity 43    
Minimum Humidity 12    
Precipitation  
Precipitation 0.00 in 0.05 in - ()
Sea Level Pressure  
Sea Level Pressure 29.41 in    
Wind  
Wind Speed 18 mph ()    
Max Wind Speed 32 mph    
Max Gust Speed -    
Visibility 6.2 miles    
Events      
Averages and records for this station are not official NWS values.
T = Trace of Precipitation, MM = Missing Value Source: Averaged Metar Reports

Daily Weather History Graph

Daily Weather History Graph

Search for Another Location

Airport or City:

Trip Planner

Search our weather history database for the weather conditions in past years. The results will help you decide how hot, cold, wet, or windy it might be!

Date:

Astronomy

May. 04, 2014 Rise Set
Actual Time 4:44 AM WGST 9:14 PM WGST
Civil Twilight 3:46 AM WGST 10:13 PM WGST
Nautical Twilight 1:58 AM WGST 12:08 AM WGST
Astronomical Twilight Sun does not rise Sun does not rise
Moon 8:54 AM WGST (5/4) 1:22 AM WGST (5/4)
Length of Visible Light 18h 27m
Length of Day
16h 29m
Waxing Crescent, 27% of the Moon is Illuminated
May 4
Waxing Crescent
May 7
First Quarter
May 14
Full
May 21
Last Quarter
May 28
New

Hourly Weather History & Observations

Time (WGST) Temp. Dew Point Humidity Pressure Visibility Wind Dir Wind Speed Gust Speed Precip Events Conditions
12:00 AM 56 °F 22 °F 15% 29.41 in 31 mi East 31.1 mph - -   Overcast
1:00 AM 55 °F 22 °F 16% 29.39 in 31 mi ENE 31.1 mph - -   Mostly Cloudy
2:00 AM 54 °F 22 °F 17% 29.39 in 31 mi East 25.3 mph - -   Mostly Cloudy
3:00 AM 55 °F 21 °F 15% 29.38 in 31 mi East 32.2 mph - -   Mostly Cloudy
4:00 AM 53 °F 21 °F 17% 29.39 in 31 mi East 26.5 mph - -   Partly Cloudy
5:00 AM 53 °F 20 °F 16% 29.39 in 31 mi East 24.2 mph - -   Scattered Clouds
5:50 AM 51.8 °F 24.8 °F 35% 29.39 in 6.2 mi East 21.9 mph - N/A   Scattered Clouds
6:00 AM 53 °F 21 °F 17% 29.41 in 28 mi East 18.4 mph - -   Scattered Clouds
6:50 AM 48.2 °F 26.6 °F 43% 29.42 in 6.2 mi ENE 10.4 mph - N/A   Mostly Cloudy
7:00 AM 48 °F 25 °F 27% 29.41 in 28 mi West 3.5 mph - -   Scattered Clouds
7:50 AM 53.6 °F 24.8 °F 33% 29.39 in 6.2 mi East 13.8 mph - N/A   Mostly Cloudy
8:00 AM 49 °F 25 °F 26% 29.41 in 28 mi East 13.8 mph - -   Partly Cloudy
8:50 AM 51.8 °F 28.4 °F 41% 29.39 in 6.2 mi ENE 11.5 mph - N/A   Mostly Cloudy
9:00 AM 55 °F 21 °F 15% 29.40 in 22 mi ENE 12.7 mph - -   Scattered Clouds
9:50 AM 55.4 °F 24.8 °F 31% 29.39 in 6.2 mi East 20.7 mph - N/A   Mostly Cloudy
10:00 AM 55 °F 21 °F 15% 29.39 in 28 mi East 21.9 mph - -   Partly Cloudy
10:50 AM 57.2 °F 23.0 °F 27% 29.39 in 6.2 mi ENE 26.5 mph - N/A   Mostly Cloudy
11:00 AM 56 °F 20 °F 14% 29.39 in 25 mi ENE 25.3 mph - -   Scattered Clouds
11:50 AM 55.4 °F 24.8 °F 31% 29.39 in 6.2 mi ENE 24.2 mph - N/A   Mostly Cloudy
12:00 PM 57 °F 18 °F 12% 29.39 in 25 mi ENE 24.2 mph - -   Mostly Cloudy
12:50 PM 57.2 °F 24.8 °F 29% 29.39 in 6.2 mi ENE 21.9 mph - N/A   Mostly Cloudy
1:00 PM 57 °F 19 °F 12% 29.40 in 28 mi ENE 20.7 mph - -   Mostly Cloudy
1:50 PM 57.2 °F 24.8 °F 29% 29.39 in 6.2 mi ENE 18.4 mph - N/A   Mostly Cloudy
2:00 PM 56 °F 19 °F 13% 29.41 in 28 mi ENE 17.3 mph - -   Scattered Clouds
2:50 PM 55.4 °F 23.0 °F 29% 29.39 in 6.2 mi ENE 13.8 mph - N/A   Mostly Cloudy
3:00 PM 56 °F 19 °F 13% 29.41 in 25 mi ENE 13.8 mph - -   Partly Cloudy
3:50 PM 55.4 °F 23.0 °F 29% 29.42 in 6.2 mi ENE 11.5 mph - N/A   Mostly Cloudy
4:00 PM 56 °F 19 °F 13% 29.42 in 22 mi ENE 12.7 mph - -   Mostly Cloudy
4:50 PM 55.4 °F 24.8 °F 31% 29.42 in 6.2 mi ENE 12.7 mph - N/A   Mostly Cloudy
5:00 PM 55 °F 18 °F 13% 29.43 in 28 mi East 10.4 mph - -   Mostly Cloudy
5:50 PM 55.4 °F 23.0 °F 29% 29.42 in 6.2 mi ENE 9.2 mph - N/A   Mostly Cloudy
6:00 PM 55 °F 19 °F 13% 29.44 in 28 mi ENE 10.4 mph - -   Mostly Cloudy
7:00 PM 53 °F 20 °F 16% 29.45 in 28 mi ESE 4.6 mph - -   Scattered Clouds
8:00 PM 50 °F 24 °F 23% 29.46 in 31 mi NE 6.9 mph - -  
9:00 PM 49 °F 21 °F 21% 29.48 in 31 mi East 6.9 mph - -   Scattered Clouds
10:00 PM 48 °F 22 °F 23% 29.50 in 28 mi East 5.8 mph - -   Mostly Cloudy
11:00 PM 47 °F 22 °F 25% 29.50 in 31 mi ENE 6.9 mph - -   Overcast